Sie sind vermutlich noch nicht im Forum angemeldet - Klicken Sie hier um sich kostenlos anzumelden  
NOHAB-GM
Zurück zur Rundnasen-Homepage
Sie können sich hier anmelden
Dieses Forum hat 1.746 Themen
und zur Zeit 2.313 Beiträge
Sie haben keine Schreibrechte
 Externe Links  »Neues Thema erstellen«
Forum Information
   Betreff Absender Antworten Zugriffe Letzter Beitrag
Di 3 642 på tur igjen NOHAB-Pappi 0 57 15.11.2018 07:01
Die NoHAB My 1138 in Hannover Hbf (2 B.) NOHAB-Fan Magdeburg 0 49 11.11.2018 21:52
MY 1149 at Klanxbüll (Video) SimonTogDK 0 42 11.11.2018 10:23
MY 1149 at Klanxbüll SimonTogDK 2 61 11.11.2018 10:24
Lidt fra Lersøen 1991 NOHAB-Pappi 0 56 09.11.2018 06:18
eine NOHAB im Leinetal NOHAB-Fan Magdeburg 0 58 08.11.2018 15:14
CLR MY 1138 Holz-Kutscher 0 58 07.11.2018 12:29
Altmark Rail MY 1149 NOHAB-Fan Magdeburg 0 65 03.11.2018 22:57
[HR] Kroatiens Eisenbahn wird bunt... 3 Bilder NOHAB-Pappi 0 72 03.11.2018 08:00
MY 1158 with crane SimonTogDK 0 66 02.11.2018 18:33
Gm power på Fryksdalsbanan NOHAB-Pappi 0 76 24.10.2018 20:18
Ældre billeder fra Nykøbing Sjælland på OHJ NOHAB-Pappi 0 83 22.10.2018 19:32
Gera / EBS NOHAB-Pappi 0 110 11.10.2018 07:54
MY 1135 in Taulov SimonTogDK 1 114 10.10.2018 08:42
Strabag-Nohab und Kran NOHAB-Fan Magdeburg 0 84 04.10.2018 15:35
MY 1158 - Skanderborg und Ry SimonTogDK 0 82 24.09.2018 18:48
CFL Cargo på Thybanen! NOHAB-Pappi 0 93 19.09.2018 06:12
MY 1158 between Skanderborg and Ry SimonTogDK 0 88 13.09.2018 22:50
MZ 1459 with cargo from Aalborg SimonTogDK 0 73 11.09.2018 17:48
Fahrt nach Tapolca und zurück mit CLR 1138 und M61 017 NOHAB-Pappi 0 89 11.09.2018 08:07
150 Jahre MÁV Fahrt nach Szentendre NOHAB-Pappi 0 72 10.09.2018 08:35
[SE] NOHAB (NoHAB) PRODUKTKATALOG 1944 (PDF) NOHAB-Pappi 1 1.429 05.09.2018 07:10
MY 1126 Jutland trip - 19/08/2018 - Video SimonTogDK 0 58 03.09.2018 18:34
MY 1126 Jutland trip - 19/08/2018 SimonTogDK 0 83 28.08.2018 21:34
MY 1126 Jutland trip video SimonTogDK 1 118 26.08.2018 11:23
Sonderfahrt mit My 1126 Holz-Kutscher 0 90 23.08.2018 13:17
MY 1126 on Jutlands trip SimonTogDK 0 73 23.08.2018 06:42
CFL MY 1146 with ballast cleaning machine SimonTogDK 0 86 19.08.2018 19:34
[SE] Kiruna, tur med tog 93 og 99, del 4 - TMX x 2 NOHAB-Pappi 0 81 17.08.2018 08:04
MX 1023 + MX 1029 with ET SimonTogDK 0 65 16.08.2018 21:51
[RO]: Letzte Reise des letzten Rumänischen Königs Mihai I (Michael I) (m. L.) NOHAB-Pappi 0 106 05.08.2018 23:34
MX 1019 mit Bettungsreinigungsmaschine SimonTogDK 0 82 05.08.2018 15:20
3 602 plassert på en husvegg i Trollhättan. NOHAB-Pappi 0 105 31.07.2018 05:44
Retro-Wochenende am Balaton TMX_104 0 69 30.07.2018 16:23
Nächstes Wochenende: M61 und M62 am Balaton TMX_104 0 93 24.07.2018 06:36
Noen Di3 bilder fra Flesberg! NOHAB-Pappi 0 101 23.07.2018 06:38
MX 1019 at Handest SimonTogDK 0 74 22.07.2018 20:15
Video of MY 1134 and MX 1008 with Weedfree on track SimonTogDK 0 65 22.07.2018 08:56
MY 1134 + MX 1008 with Weedfree on track - Struer SimonTogDK 0 74 20.07.2018 17:21
MY 1134 + MX 1008 with Weedfree on track - Fredericia SimonTogDK 2 7.697 19.07.2018 20:55
[DK+SE] Von Wandsbek nach Bodø (Teil 3 Oslo - Bodø, m.B.) NOHAB-Pappi 0 83 17.07.2018 07:58
MY 1155 im Odenwald Holz-Kutscher 1 284 16.07.2018 15:59
[NO] Cargonet CD312 006 i tog 5795 NOHAB-Pappi 0 81 12.07.2018 07:16
Tømmertog passerer Brøttum NOHAB-Pappi 0 78 10.07.2018 09:05
Altmark Rail MY 1149 in Patt- und Flensburg-Weiche NOHAB-Fan Magdeburg 0 84 09.07.2018 22:55
Nohab at Padborg SimonTogDK 0 76 09.07.2018 21:05
Nohab in Gütersloh NOHAB-Fan Magdeburg 0 81 08.07.2018 19:47
[NO] Matrand - det hilses til passerende tog NOHAB-Pappi 0 79 06.07.2018 10:40
[DK]2 Großdiesel am schuften (3Bilder) NOHAB-Pappi 0 85 04.07.2018 21:54
MX 1019 in Randers SimonTogDK 0 72 04.07.2018 21:49
Nohab in Darmstadt Kranichstein NOHAB-Fan Magdeburg 0 85 30.06.2018 09:59
MAERSK tog Århus-Taulov NOHAB-Pappi 0 78 28.06.2018 06:26
"Kontorplassen min" NOHAB-Pappi 0 72 27.06.2018 09:50
MY 1146, MX 1023 and MX 1029 with ET 21 SimonTogDK 0 70 26.06.2018 18:50
Sonderzug für Janosch NOHAB-Pappi 0 80 25.06.2018 07:16
MY 1134 at Stevnstrup SimonTogDK 0 65 23.06.2018 12:43
MY 28 + MX 26 with Mærsktrain at Eriknauer SimonTogDK 0 66 23.06.2018 12:42
Hector sitt pinnetog fra Kvam NOHAB-Pappi 0 62 23.06.2018 08:47
1415, 1423, 1430 NOHAB-Pappi 0 69 23.06.2018 08:02
Nattog i Hommelvik NOHAB-Pappi 0 82 19.06.2018 06:45
MY 28(Victoria) SimonTogDK 0 134 17.06.2018 09:07
MY 1134 SimonTogDK 0 130 17.06.2018 09:07
Nattens NoHab NOHAB-Pappi 0 84 15.06.2018 16:36
Lokomotiver på Støren NOHAB-Pappi 0 80 14.06.2018 07:14
MX 1019 + MY 1134 rail track work around Stevnstrup and Randers SimonTogDK 0 92 10.06.2018 20:42
T41 204 & T42 205 (EMD G12 General Motors Diesel demonstrator 7707) på Haparandabanan NOHAB-Pappi 0 86 08.06.2018 19:53
[SE] Railcare T intar kvällen NOHAB-Pappi 0 74 08.06.2018 09:26
[UA] Ukrainsk M62-1439 m/GM motor i Kiev NOHAB-Pappi 0 86 07.06.2018 08:48
Ein Ort – ein Foto, aber 6 verschiedene NoHAB-Loks + 3 weitere Fotos NOHAB-Fan Magdeburg 0 86 06.06.2018 19:42
NOHAB MY 1155 in Münster NOHAB-Fan Magdeburg 0 79 05.06.2018 10:20
Di 3.620 i Charlottenberg NOHAB-Pappi 0 93 27.05.2018 23:25
[DK] Alltag auf Seeland oder wenn mal keine ME kommt^^ NOHAB-Pappi 0 77 26.05.2018 12:01
MY 1155 auf IGE Tour Holz-Kutscher 1 5.416 14.05.2018 15:56
IGE Fahrt nach Ungarn NOHAB-Pappi 0 110 14.05.2018 06:59
Tatránsky Kurier TMX_104 2 5.688 27.05.2018 17:52
 Sprung Seite 1  2  3  4  5 - 24  weiter »
NOHAB-GM
Xobor Forum Software von Xobor
Einfach ein eigenes Forum erstellen